Richmond, VA

6:10 PM EDT on April 30, 2017 (GMT -0400)
Richmond International

Weather History for KRIC - April, 2014

Change the Weather History Date:

Friday, April 11, 2014

  Actual Average Record
Temperature  
Mean Temperature 64 °F 57 °F  
Max Temperature 82 °F 69 °F 92 °F (1930)
Min Temperature 45 °F 45 °F 27 °F (1960)
Degree Days  
Heating Degree Days 1 9  
Month to date heating degree days 65 113  
Since 1 July heating degree days 3631 3565  
Cooling Degree Days 0 1  
Month to date cooling degree days 3 10  
Year to date cooling degree days 5 16  
Growing Degree Days 18 (Base 50)    
Moisture  
Dew Point 40 °F    
Average Humidity 43    
Maximum Humidity 66    
Minimum Humidity 20    
Precipitation  
Precipitation 0.00 in 0.11 in 1.07 in (1962)
Month to date precipitation 0.97 1.27  
Year to date precipitation 10.52 11.11  
Snow  
Snow 0.00 in 0.00 in 0.00 in (2002)
Month to date snowfall 0.0 0.1  
Since 1 July snowfall 14.5 10.3  
Snow Depth 0.00 in    
Sea Level Pressure  
Sea Level Pressure 30.08 in    
Wind  
Wind Speed 12 mph (SSW)    
Max Wind Speed 25 mph    
Max Gust Speed 31 mph    
Visibility 10 miles    
Events      
T = Trace of Precipitation, MM = Missing Value Source: NWS Daily Summary

Daily Weather History Graph

Daily Weather History Graph

Search for Another Location

Airport or City:

Trip Planner

Search our weather history database for the weather conditions in past years. The results will help you decide how hot, cold, wet, or windy it might be!

Date:

Astronomy

Apr. 11, 2014 Rise Set
Actual Time 6:40 AM EDT 7:41 PM EDT
Civil Twilight 6:13 AM EDT 8:07 PM EDT
Nautical Twilight 5:41 AM EDT 8:39 PM EDT
Astronomical Twilight 5:08 AM EDT 9:12 PM EDT
Moon 4:23 PM EDT (4/11) 4:29 AM EDT (4/11)
Length of Visible Light 13h 54m
Length of Day
13h 00m
Waxing Gibbous, 87% of the Moon is Illuminated
Apr 11
Waxing Gibbous
Apr 15
Full
Apr 22
Last Quarter
Apr 29
New
May 6
First Quarter

Hourly Weather History & Observations

Time (EDT) Temp. Dew Point Humidity Pressure Visibility Wind Dir Wind Speed Gust Speed Precip Events Conditions
12:54 AM 60.1 °F 39.0 °F 46% 30.13 in 10.0 mi SSW 11.5 mph - N/A   Partly Cloudy
1:54 AM 59.0 °F 39.9 °F 49% 30.11 in 10.0 mi South 12.7 mph - N/A   Partly Cloudy
2:54 AM 55.9 °F 41.0 °F 57% 30.10 in 10.0 mi South 9.2 mph - N/A   Clear
3:54 AM 57.0 °F 42.1 °F 57% 30.09 in 10.0 mi South 11.5 mph - N/A   Clear
4:54 AM 57.9 °F 42.1 °F 56% 30.11 in 10.0 mi SSW 9.2 mph - N/A   Clear
5:54 AM 55.0 °F 42.1 °F 62% 30.13 in 10.0 mi South 9.2 mph - N/A   Partly Cloudy
6:54 AM 53.1 °F 42.1 °F 66% 30.14 in 10.0 mi South 9.2 mph - N/A   Scattered Clouds
7:54 AM 57.9 °F 42.1 °F 56% 30.15 in 10.0 mi SSW 11.5 mph - N/A   Mostly Cloudy
8:54 AM 62.1 °F 42.1 °F 48% 30.15 in 10.0 mi SW 10.4 mph - N/A   Mostly Cloudy
9:54 AM 69.1 °F 39.9 °F 35% 30.14 in 10.0 mi SW 11.5 mph - N/A   Mostly Cloudy
10:54 AM 73.0 °F 39.9 °F 30% 30.13 in 10.0 mi SW 8.1 mph - N/A   Overcast
11:54 AM 77.0 °F 39.9 °F 26% 30.11 in 10.0 mi SW 11.5 mph - N/A   Overcast
12:54 PM 78.1 °F 37.9 °F 24% 30.08 in 10.0 mi SSW 12.7 mph - N/A   Overcast
1:54 PM 79.0 °F 39.0 °F 24% 30.04 in 10.0 mi SSW 19.6 mph 26.5 mph N/A   Overcast
2:54 PM 81.0 °F 37.0 °F 21% 30.01 in 10.0 mi SSW 20.7 mph 26.5 mph N/A   Overcast
3:54 PM 81.0 °F 36.0 °F 20% 29.99 in 10.0 mi SW 21.9 mph 27.6 mph N/A   Overcast
4:54 PM 80.1 °F 39.0 °F 23% 29.99 in 10.0 mi SW 15.0 mph 27.6 mph N/A   Mostly Cloudy
5:54 PM 80.1 °F 36.0 °F 20% 29.99 in 10.0 mi SW 17.3 mph 25.3 mph N/A   Mostly Cloudy
6:54 PM 75.9 °F 39.0 °F 26% 29.99 in 10.0 mi SSW 13.8 mph - N/A   Mostly Cloudy
7:54 PM 73.9 °F 39.0 °F 28% 30.00 in 10.0 mi SSW 11.5 mph - N/A   Mostly Cloudy
8:54 PM 69.1 °F 39.9 °F 35% 30.03 in 10.0 mi SSW 8.1 mph - N/A   Mostly Cloudy
9:54 PM 69.1 °F 41.0 °F 36% 30.06 in 10.0 mi SSW 9.2 mph - N/A   Mostly Cloudy
10:54 PM 70.0 °F 42.1 °F 36% 30.07 in 10.0 mi WSW 6.9 mph - N/A   Scattered Clouds
11:54 PM 66.0 °F 44.1 °F 45% 30.06 in 10.0 mi SW 6.9 mph - N/A   Scattered Clouds